Location: Lombard
(41.8800°N, 88.0078°W)
Time: 02:03:16
(UTC-06:00)

BlueWalker 3 - Pass Details

Date: 26 January 2026
Orbit: 450 x 461 km, 53.2° (Epoch: 11 February)

Event Time Altitude Azimuth Distance (km) Brightness Sun altitude
Rises 17:50:50 0° 264° (W) 2,452 7.4 -9.7°
Reaches altitude 10° 17:53:13 10° 278° (W) 1,581 5.6 -10.2°
Maximum altitude 17:56:13 25° 336° (NNW) 951 3.4 -10.7°
Enters shadow 17:59:11 10° 33° (NNE) 1,567 4.0 -11.2°
